Tracking 22283 objects as of 27-Jan-2021
HD Live streaming from Space Station
objects crossing your sky now

METEOR 2-8 DEB

Track METEOR 2-8 DEB now!
10-day predictions


NORAD ID: 36355
Int'l Code: 1982-025AR
Perigee: 840.8 km
Apogee: 869.0 km
Inclination: 82.5 °
Period: 101.9 minutes
Semi major axis: 7225 km
RCS: 0.0127 m2 (small)
Launch date: March 25, 1982
Source: Commonwealth of Independent States (former USSR) (CIS)
Launch site: PLESETSK MISSILE AND SPACE COMPLEX (PKMTR)

Note: This is SATELLITE DEBRIS
aabbcc
Your satellite tracking list
Your tracking list is empty




NASA's NSSDC Master Catalog

Two Line Element Set (TLE):
1 36355U 82025AR  21026.28622505  .00001080  00000-0  56609-3 0  9998
2 36355  82.5225  35.7116 0019539 151.5234 208.7014 14.13393665932286
Source of the keplerian elements: AFSPC